| time (UTC) | temp C | wind direction | speed KPH | gust KPH | rain 1hr cm | rain 24hr cm | rain mn cm | humidity % | barometer mb |
| 20260906075504 | 12 | 170 | 1.6 | 8.0 | 0.00 | 0.00 | 0.00 | 68 | 1022.6 |
| 20260906075002 | 12 | 170 | 3.2 | 9.7 | 0.00 | 0.00 | 0.00 | 67 | 1022.6 |
| 20260906074509 | 12 | 158 | 6.4 | 9.7 | 0.00 | 0.00 | 0.00 | 67 | 1022.4 |
| 20260906074003 | 12 | 157 | 3.2 | 6.4 | 0.00 | 0.00 | 0.00 | 68 | 1022.4 |
| 20260906073503 | 12 | 152 | 3.2 | 6.4 | 0.00 | 0.00 | 0.00 | 68 | 1022.4 |
| 20260906073005 | 12 | 161 | 3.2 | 6.4 | 0.00 | 0.00 | 0.00 | 68 | 1022.4 |
| 20260906072504 | 13 | 159 | 3.2 | 8.0 | 0.00 | 0.00 | 0.00 | 68 | 1022.3 |
| 20260906072009 | 13 | 158 | 4.8 | 9.7 | 0.00 | 0.00 | 0.00 | 68 | 1022.3 |
| 20260906071503 | 13 | 156 | 4.8 | 9.7 | 0.00 | 0.00 | 0.00 | 68 | 1022.3 |
| 20260906071003 | 13 | 156 | 6.4 | 9.7 | 0.00 | 0.00 | 0.00 | 68 | 1022.2 |
| 20260906070503 | 13 | 189 | 4.8 | 9.7 | 0.00 | 0.00 | 0.00 | 68 | 1022.1 |
| 20260906070004 | 13 | 157 | 6.4 | 12.9 | 0.00 | 0.00 | 0.00 | 68 | 1022.0 |
| 20260906065509 | 13 | 192 | 8.0 | 12.9 | 0.00 | 0.00 | 0.00 | 66 | 1022.0 |
| 20260906065003 | 13 | 195 | 3.2 | 14.5 | 0.00 | 0.00 | 0.00 | 64 | 1022.0 |
| 20260906064504 | 13 | 156 | 9.7 | 14.5 | 0.00 | 0.00 | 0.00 | 63 | 1022.0 |
| 20260906064005 | 13 | 158 | 4.8 | 14.5 | 0.00 | 0.00 | 0.00 | 64 | 1021.9 |
| 20260906063507 | 13 | 156 | 6.4 | 16.1 | 0.00 | 0.00 | 0.00 | 65 | 1021.9 |
| 20260906063003 | 13 | 203 | 9.7 | 16.1 | 0.00 | 0.00 | 0.00 | 66 | 1021.8 |
| 20260906062503 | 13 | 131 | 4.8 | 11.3 | 0.00 | 0.00 | 0.00 | 64 | 1021.8 |
| 20260906062005 | 13 | 122 | 4.8 | 8.0 | 0.00 | 0.00 | 0.00 | 66 | 1021.7 |
| 20260906061511 | 13 | 139 | 3.2 | 11.3 | 0.00 | 0.00 | 0.00 | 65 | 1021.7 |
| 20260906061005 | 13 | 162 | 4.8 | 11.3 | 0.00 | 0.00 | 0.00 | 66 | 1021.7 |
| 20260906060503 | 13 | 189 | 4.8 | 8.0 | 0.00 | 0.00 | 0.00 | 67 | 1021.9 |
| 20260906060016 | 13 | 223 | 4.8 | 8.0 | 0.00 | 0.00 | 0.00 | 65 | 1021.9 |
| 20260906055504 | 13 | 175 | 1.6 | 8.0 | 0.00 | 0.00 | 0.00 | 66 | 1022.0 |
| 20260906055004 | 13 | 168 | 3.2 | 8.0 | 0.00 | 0.00 | 0.00 | 67 | 1021.8 |
| 20260906054503 | 13 | 232 | 0.0 | 3.2 | 0.00 | 0.00 | 0.00 | 66 | 1021.8 |
| 20260906054003 | 13 | 232 | 0.0 | 4.8 | 0.00 | 0.00 | 0.00 | 65 | 1021.8 |
| 20260906053505 | 13 | 233 | 1.6 | 6.4 | 0.00 | 0.00 | 0.00 | 67 | 1021.8 |
| 20260906053005 | 13 | 197 | 3.2 | 9.7 | 0.00 | 0.00 | 0.00 | 67 | 1021.8 |
| 20260906052503 | 13 | 203 | 3.2 | 11.3 | 0.00 | 0.00 | 0.00 | 64 | 1021.9 |
| 20260906052007 | 13 | 160 | 8.0 | 12.9 | 0.00 | 0.00 | 0.00 | 65 | 1021.8 |
| 20260906051504 | 14 | 213 | 4.8 | 12.9 | 0.00 | 0.00 | 0.00 | 65 | 1021.8 |
| 20260906051013 | 13 | 228 | 3.2 | 12.9 | 0.00 | 0.00 | 0.00 | 65 | 1021.7 |
| 20260906050509 | 13 | 203 | 4.8 | 16.1 | 0.00 | 0.00 | 0.00 | 66 | 1021.6 |
| 20260906050006 | 13 | 237 | 6.4 | 16.1 | 0.00 | 0.00 | 0.00 | 68 | 1021.7 |
| 20260906045512 | 13 | 244 | 6.4 | 16.1 | 0.00 | 0.00 | 0.00 | 67 | 1021.7 |
| 20260906045004 | 13 | 225 | 4.8 | 11.3 | 0.00 | 0.00 | 0.00 | 67 | 1021.7 |
| 20260906044504 | 13 | 230 | 1.6 | 14.5 | 0.00 | 0.00 | 0.00 | 66 | 1021.6 |
| 20260906044006 | 13 | 261 | 6.4 | 14.5 | 0.00 | 0.00 | 0.00 | 65 | 1021.5 |
| 20260906043503 | 13 | 251 | 8.0 | 12.9 | 0.00 | 0.00 | 0.00 | 65 | 1021.4 |
| 20260906043013 | 13 | 229 | 6.4 | 11.3 | 0.00 | 0.00 | 0.00 | 64 | 1021.5 |
| 20260906042504 | 14 | 301 | 4.8 | 9.7 | 0.00 | 0.00 | 0.00 | 65 | 1021.5 |
| 20260906042004 | 14 | 306 | 3.2 | 9.7 | 0.00 | 0.00 | 0.00 | 67 | 1021.6 |
| 20260906041504 | 13 | 314 | 4.8 | 8.0 | 0.00 | 0.00 | 0.00 | 66 | 1021.6 |
| 20260906041003 | 13 | 252 | 3.2 | 8.0 | 0.00 | 0.00 | 0.00 | 67 | 1021.5 |
| 20260906040503 | 13 | 210 | 3.2 | 8.0 | 0.00 | 0.00 | 0.00 | 65 | 1021.4 |
| 20260906040023 | 13 | 239 | 3.2 | 8.0 | 0.00 | 0.00 | 0.00 | 67 | 1021.4 |
| 20260906035504 | 13 | 242 | 1.6 | 11.3 | 0.00 | 0.00 | 0.00 | 67 | 1021.4 |
| 20260906035010 | 13 | 216 | 1.6 | 14.5 | 0.00 | 0.00 | 0.00 | 70 | 1021.5 |
| 20260906034520 | 13 | 206 | 8.0 | 16.1 | 0.00 | 0.00 | 0.00 | 70 | 1021.4 |
| 20260906034014 | 12 | 194 | 6.4 | 17.7 | 0.00 | 0.00 | 0.00 | 72 | 1021.4 |
| 20260906033512 | 13 | 239 | 9.7 | 17.7 | 0.00 | 0.00 | 0.00 | 71 | 1021.5 |
| 20260906033018 | 13 | 251 | 9.7 | 17.7 | 0.00 | 0.00 | 0.00 | 67 | 1021.5 |
| 20260906032515 | 13 | 126 | 3.2 | 16.1 | 0.00 | 0.00 | 0.00 | 66 | 1021.5 |
| 20260906032004 | 13 | 263 | 6.4 | 16.1 | 0.00 | 0.00 | 0.00 | 66 | 1021.6 |
| 20260906031509 | 13 | 244 | 8.0 | 16.1 | 0.00 | 0.00 | 0.00 | 71 | 1021.6 |
| 20260906031003 | 13 | 283 | 6.4 | 12.9 | 0.00 | 0.00 | 0.00 | 73 | 1021.6 |
| 20260906030509 | 12 | 226 | 0.0 | 14.5 | 0.00 | 0.00 | 0.00 | 71 | 1021.6 |
| 20260906030005 | 12 | 233 | 4.8 | 16.1 | 0.00 | 0.00 | 0.00 | 73 | 1021.6 |
| 20260906025512 | 12 | 212 | 8.0 | 17.7 | 0.00 | 0.00 | 0.00 | 74 | 1021.6 |
| 20260906025009 | 12 | 221 | 11.3 | 17.7 | 0.00 | 0.00 | 0.00 | 71 | 1021.6 |
| 20260906024509 | 13 | 191 | 8.0 | 17.7 | 0.00 | 0.00 | 0.00 | 68 | 1021.6 |
| 20260906024014 | 13 | 219 | 9.7 | 16.1 | 0.00 | 0.00 | 0.00 | 70 | 1021.7 |
| 20260906023505 | 12 | 244 | 4.8 | 14.5 | 0.00 | 0.00 | 0.00 | 68 | 1021.8 |
| 20260906023023 | 12 | 261 | 9.7 | 14.5 | 0.00 | 0.00 | 0.00 | 69 | 1021.9 |
| 20260906022507 | 12 | 235 | 6.4 | 16.1 | 0.00 | 0.00 | 0.00 | 71 | 1021.9 |
| 20260906022004 | 12 | 226 | 8.0 | 16.1 | 0.00 | 0.00 | 0.00 | 70 | 1021.9 |
| 20260906021522 | 12 | 232 | 8.0 | 19.3 | 0.00 | 0.00 | 0.00 | 71 | 1021.9 |
| 20260906021007 | 12 | 260 | 11.3 | 19.3 | 0.00 | 0.00 | 0.00 | 69 | 1022.0 |
| 20260906020719 | 12 | 247 | 8.0 | 17.7 | 0.00 | 0.00 | 0.00 | 71 | 1022.1 |
| 20260906015519 | 12 | 258 | 8.0 | 17.7 | 0.00 | 0.00 | 0.00 | 71 | 1022.1 |
| 20260906015006 | 12 | 256 | 8.0 | 16.1 | 0.00 | 0.00 | 0.00 | 70 | 1022.1 |
| 20260906014511 | 12 | 211 | 8.0 | 14.5 | 0.00 | 0.00 | 0.00 | 69 | 1022.1 |
| 20260906014010 | 12 | 168 | 1.6 | 19.3 | 0.00 | 0.00 | 0.00 | 70 | 1022.1 |
| 20260906013510 | 12 | 214 | 12.9 | 19.3 | 0.00 | 0.00 | 0.00 | 70 | 1022.2 |
| 20260906013009 | 12 | 171 | 4.8 | 16.1 | 0.00 | 0.00 | 0.00 | 71 | 1022.2 |
| 20260906012515 | 12 | 214 | 8.0 | 17.7 | 0.00 | 0.00 | 0.00 | 69 | 1022.3 |
| 20260906012012 | 12 | 200 | 9.7 | 17.7 | 0.00 | 0.00 | 0.00 | 73 | 1022.2 |
| 20260906011621 | 12 | 244 | 8.0 | 16.1 | 0.00 | 0.00 | 0.00 | 75 | 1022.2 |
| 20260906011605 | 12 | 237 | 8.0 | 19.3 | 0.00 | 0.00 | 0.00 | 76 | 1022.1 |
| 20260906005514 | 11 | 212 | 9.7 | 19.3 | 0.00 | 0.00 | 0.00 | 79 | 1022.3 |
| 20260906005008 | 11 | 248 | 8.0 | 19.3 | 0.00 | 0.00 | 0.00 | 79 | 1022.3 |
| 20260906004505 | 11 | 224 | 9.7 | 19.3 | 0.00 | 0.00 | 0.00 | 79 | 1022.2 |
| 20260906004009 | 11 | 231 | 9.7 | 22.5 | 0.00 | 0.00 | 0.00 | 81 | 1022.3 |
| 20260906003507 | 11 | 208 | 9.7 | 22.5 | 0.00 | 0.00 | 0.00 | 81 | 1022.1 |
| 20260906003013 | 11 | 231 | 8.0 | 17.7 | 0.00 | 0.00 | 0.00 | 82 | 1022.1 |
| 20260906002509 | 11 | 241 | 9.7 | 22.5 | 0.00 | 0.00 | 0.00 | 82 | 1022.1 |
| 20260906002008 | 11 | 217 | 11.3 | 22.5 | 0.00 | 0.03 | 0.00 | 82 | 1022.0 |
| 20260906001524 | 11 | 234 | 11.3 | 19.3 | 0.00 | 0.03 | 0.00 | 82 | 1022.0 |
| 20260906001007 | 11 | 221 | 11.3 | 19.3 | 0.00 | 0.03 | 0.00 | 83 | 1021.9 |
| 20260906000514 | 10 | 237 | 11.3 | 19.3 | 0.00 | 0.03 | 0.00 | 82 | 1021.8 |
| 20260906000018 | 10 | 218 | 12.9 | 19.3 | 0.00 | 0.03 | 0.00 | 84 | 1021.8 |
| 20260905235516 | 10 | 210 | 12.9 | 19.3 | 0.00 | 0.03 | 0.00 | 84 | 1021.8 |
| 20260905235016 | 10 | 220 | 11.3 | 19.3 | 0.00 | 0.03 | 0.00 | 85 | 1021.8 |
| 20260905234518 | 10 | 237 | 11.3 | 19.3 | 0.00 | 0.03 | 0.00 | 86 | 1021.8 |
| 20260905234015 | 10 | 239 | 6.4 | 17.7 | 0.00 | 0.03 | 0.00 | 86 | 1021.9 |
| 20260905233514 | 10 | 224 | 8.0 | 19.3 | 0.00 | 0.03 | 0.00 | 86 | 1021.9 |
| 20260905233009 | 10 | 220 | 12.9 | 19.3 | 0.00 | 0.03 | 0.00 | 86 | 1021.9 |
| 20260905232510 | 10 | 218 | 9.7 | 17.7 | 0.00 | 0.03 | 0.00 | 86 | 1021.9 |
| 20260905232008 | 10 | 221 | 6.4 | 17.7 | 0.00 | 0.03 | 0.00 | 86 | 1021.9 |
| 20260905231537 | 10 | 249 | 11.3 | 17.7 | 0.00 | 0.03 | 0.00 | 86 | 1021.7 |
| 20260905231012 | 10 | 226 | 9.7 | 14.5 | 0.00 | 0.03 | 0.00 | 86 | 1021.7 |
| 20260905230507 | 10 | 232 | 6.4 | 14.5 | 0.00 | 0.03 | 0.00 | 86 | 1021.7 |
| 20260905230022 | 9 | 216 | 9.7 | 14.5 | 0.00 | 0.03 | 0.00 | 86 | 1021.6 |
| 20260905225514 | 9 | 224 | 6.4 | 16.1 | 0.00 | 0.03 | 0.00 | 86 | 1021.5 |
| 20260905225011 | 9 | 194 | 8.0 | 16.1 | 0.00 | 0.03 | 0.00 | 86 | 1021.4 |
| 20260905224600 | 9 | 212 | 6.4 | 16.1 | 0.00 | 0.05 | 0.00 | 86 | 1021.3 |
| 20260905224010 | 9 | 223 | 8.0 | 14.5 | 0.00 | 0.05 | 0.00 | 86 | 1021.2 |
| 20260905223518 | 9 | 204 | 8.0 | 12.9 | 0.00 | 0.05 | 0.00 | 86 | 1021.1 |
| 20260905223027 | 9 | 233 | 8.0 | 14.5 | 0.00 | 0.05 | 0.00 | 86 | 1021.0 |
| 20260905222509 | 9 | 225 | 9.7 | 14.5 | 0.00 | 0.05 | 0.00 | 86 | 1020.8 |
| 20260905222016 | 9 | 223 | 6.4 | 16.1 | 0.00 | 0.05 | 0.00 | 86 | 1020.8 |
| 20260905221528 | 9 | 207 | 8.0 | 16.1 | 0.00 | 0.05 | 0.00 | 86 | 1020.8 |
| 20260905221019 | 9 | 220 | 8.0 | 16.1 | 0.00 | 0.05 | 0.00 | 86 | 1020.8 |
| 20260905220510 | 8 | 195 | 6.4 | 14.5 | 0.00 | 0.05 | 0.00 | 86 | 1020.7 |
| 20260905220018 | 8 | 233 | 6.4 | 12.9 | 0.00 | 0.05 | 0.00 | 86 | 1020.7 |
| 20260905215517 | 8 | 228 | 6.4 | 14.5 | 0.00 | 0.05 | 0.00 | 86 | 1020.7 |
| 20260905215016 | 8 | 228 | 6.4 | 16.1 | 0.00 | 0.05 | 0.00 | 86 | 1020.4 |
| 20260905214515 | 8 | 224 | 11.3 | 19.3 | 0.00 | 0.05 | 0.00 | 86 | 1020.3 |
| 20260905214015 | 8 | 222 | 9.7 | 19.3 | 0.00 | 0.05 | 0.00 | 86 | 1020.3 |
| 20260905213514 | 8 | 236 | 9.7 | 20.9 | 0.00 | 0.05 | 0.00 | 86 | 1020.3 |
| 20260905213032 | 8 | 249 | 9.7 | 20.9 | 0.00 | 0.08 | 0.00 | 85 | 1020.2 |
| 20260905212517 | 8 | 208 | 9.7 | 24.1 | 0.00 | 0.08 | 0.00 | 85 | 1020.1 |
| 20260905212014 | 8 | 241 | 12.9 | 24.1 | 0.00 | 0.08 | 0.00 | 85 | 1020.1 |
| 20260905211542 | 8 | 234 | 11.3 | 25.7 | 0.00 | 0.08 | 0.00 | 85 | 1020.0 |
| 20260905211013 | 8 | 224 | 16.1 | 25.7 | 0.00 | 0.08 | 0.00 | 85 | 1019.9 |
| 20260905210511 | 8 | 226 | 12.9 | 24.1 | 0.00 | 0.08 | 0.00 | 86 | 1019.6 |
| 20260905210042 | 8 | 216 | 11.3 | 20.9 | 0.00 | 0.08 | 0.00 | 86 | 1019.5 |
| 20260905205516 | 8 | 239 | 8.0 | 16.1 | 0.00 | 0.08 | 0.00 | 86 | 1019.3 |
| 20260905205019 | 8 | 202 | 6.4 | 16.1 | 0.00 | 0.08 | 0.00 | 86 | 1019.2 |
| 20260905204518 | 8 | 220 | 8.0 | 16.1 | 0.00 | 0.08 | 0.00 | 86 | 1019.1 |
| 20260905204015 | 8 | 206 | 9.7 | 16.1 | 0.00 | 0.08 | 0.00 | 86 | 1019.1 |
| 20260905203514 | 8 | 195 | 9.7 | 19.3 | 0.00 | 0.08 | 0.00 | 86 | 1018.9 |
| 20260905203027 | 8 | 218 | 12.9 | 19.3 | 0.00 | 0.08 | 0.00 | 86 | 1018.7 |
| 20260905202520 | 8 | 209 | 11.3 | 16.1 | 0.00 | 0.08 | 0.00 | 85 | 1018.7 |
| 20260905202004 | 8 | 200 | 11.3 | 16.1 | 0.00 | 0.08 | 0.00 | 85 | 1018.6 |
| 20260905201507 | 8 | 196 | 8.0 | 14.5 | 0.00 | 0.08 | 0.00 | 85 | 1018.6 |
| 20260905201006 | 8 | 189 | 11.3 | 17.7 | 0.00 | 0.08 | 0.00 | 85 | 1018.5 |
| 20260905200509 | 8 | 189 | 8.0 | 17.7 | 0.00 | 0.08 | 0.00 | 85 | 1018.4 |
| 20260905200018 | 8 | 199 | 12.9 | 20.9 | 0.00 | 0.08 | 0.00 | 84 | 1018.4 |
| 20260905195506 | 8 | 211 | 11.3 | 22.5 | 0.00 | 0.08 | 0.00 | 84 | 1018.4 |
| 20260905195006 | 8 | 217 | 11.3 | 22.5 | 0.00 | 0.08 | 0.00 | 84 | 1018.4 |
| 20260905194509 | 8 | 209 | 6.4 | 20.9 | 0.00 | 0.08 | 0.00 | 84 | 1018.4 |
| 20260905194008 | 8 | 204 | 11.3 | 20.9 | 0.00 | 0.08 | 0.00 | 84 | 1018.4 |
| 20260905193507 | 8 | 228 | 12.9 | 20.9 | 0.00 | 0.08 | 0.00 | 84 | 1018.3 |
| 20260905193010 | 8 | 211 | 11.3 | 19.3 | 0.00 | 0.08 | 0.00 | 83 | 1018.2 |
| 20260905192508 | 9 | 221 | 11.3 | 19.3 | 0.00 | 0.08 | 0.00 | 83 | 1018.2 |
| 20260905192009 | 9 | 238 | 12.9 | 24.1 | 0.00 | 0.08 | 0.00 | 83 | 1018.2 |
| 20260905191508 | 9 | 229 | 8.0 | 24.1 | 0.00 | 0.10 | 0.00 | 83 | 1018.2 |
| 20260905191004 | 9 | 251 | 12.9 | 24.1 | 0.00 | 0.10 | 0.00 | 83 | 1018.1 |
| 20260905190503 | 9 | 214 | 12.9 | 24.1 | 0.00 | 0.10 | 0.00 | 83 | 1018.0 |
| 20260905190008 | 9 | 217 | 14.5 | 22.5 | 0.00 | 0.10 | 0.00 | 83 | 1017.9 |
| 20260905185507 | 9 | 223 | 14.5 | 22.5 | 0.00 | 0.10 | 0.00 | 83 | 1017.9 |
| 20260905185005 | 9 | 214 | 9.7 | 24.1 | 0.00 | 0.10 | 0.00 | 82 | 1017.8 |
| 20260905184519 | 9 | 206 | 14.5 | 24.1 | 0.00 | 0.10 | 0.00 | 82 | 1017.7 |
| 20260905184009 | 9 | 235 | 12.9 | 24.1 | 0.00 | 0.10 | 0.00 | 81 | 1017.7 |
| 20260905183508 | 9 | 208 | 14.5 | 29.0 | 0.00 | 0.10 | 0.00 | 81 | 1017.5 |
| 20260905183012 | 9 | 256 | 16.1 | 29.0 | 0.00 | 0.10 | 0.00 | 80 | 1017.5 |
| 20260905182508 | 9 | 243 | 16.1 | 25.7 | 0.00 | 0.10 | 0.00 | 80 | 1017.4 |
| 20260905182008 | 9 | 234 | 17.7 | 25.7 | 0.00 | 0.10 | 0.00 | 80 | 1017.4 |
| 20260905181511 | 9 | 243 | 9.7 | 24.1 | 0.00 | 0.10 | 0.00 | 80 | 1017.3 |
| 20260905181008 | 9 | 247 | 9.7 | 24.1 | 0.00 | 0.13 | 0.00 | 80 | 1017.4 |
| 20260905180505 | 9 | 232 | 14.5 | 22.5 | 0.00 | 0.13 | 0.00 | 80 | 1017.3 |
| 20260905180013 | 9 | 229 | 12.9 | 22.5 | 0.00 | 0.13 | 0.00 | 80 | 1017.1 |
| 20260905175508 | 9 | 256 | 12.9 | 24.1 | 0.00 | 0.13 | 0.00 | 80 | 1017.1 |
| 20260905175004 | 9 | 212 | 12.9 | 24.1 | 0.00 | 0.13 | 0.00 | 80 | 1017.1 |
| 20260905174510 | 9 | 249 | 14.5 | 22.5 | 0.00 | 0.13 | 0.00 | 81 | 1017.0 |
| 20260905174007 | 9 | 204 | 8.0 | 22.5 | 0.00 | 0.13 | 0.00 | 81 | 1016.8 |
| 20260905173508 | 9 | 213 | 9.7 | 22.5 | 0.00 | 0.13 | 0.00 | 81 | 1016.7 |
| 20260905173014 | 9 | 250 | 12.9 | 20.9 | 0.00 | 0.13 | 0.00 | 81 | 1016.7 |
| 20260905172511 | 9 | 245 | 9.7 | 20.9 | 0.00 | 0.13 | 0.00 | 81 | 1016.5 |
| 20260905172014 | 9 | 220 | 11.3 | 22.5 | 0.00 | 0.13 | 0.00 | 81 | 1016.4 |
| 20260905171516 | 9 | 241 | 16.1 | 22.5 | 0.00 | 0.15 | 0.00 | 81 | 1016.4 |
| 20260905171010 | 9 | 237 | 14.5 | 27.4 | 0.00 | 0.15 | 0.00 | 81 | 1016.2 |
| 20260905170508 | 9 | 231 | 14.5 | 27.4 | 0.00 | 0.15 | 0.00 | 81 | 1016.2 |
| 20260905170011 | 9 | 271 | 12.9 | 24.1 | 0.00 | 0.15 | 0.00 | 81 | 1016.1 |
| 20260905165511 | 9 | 240 | 14.5 | 25.7 | 0.00 | 0.15 | 0.00 | 82 | 1016.1 |
| 20260905165010 | 9 | 233 | 14.5 | 24.1 | 0.00 | 0.15 | 0.00 | 82 | 1015.9 |
| 20260905164526 | 9 | 239 | 11.3 | 24.1 | 0.00 | 0.15 | 0.00 | 82 | 1016.0 |
| 20260905164012 | 9 | 230 | 11.3 | 24.1 | 0.00 | 0.15 | 0.00 | 82 | 1015.9 |
| 20260905163510 | 9 | 259 | 11.3 | 25.7 | 0.00 | 0.15 | 0.00 | 82 | 1015.9 |
| 20260905163011 | 9 | 259 | 11.3 | 25.7 | 0.00 | 0.18 | 0.00 | 82 | 1015.8 |
| 20260905162507 | 9 | 237 | 12.9 | 24.1 | 0.00 | 0.18 | 0.00 | 82 | 1015.8 |
| 20260905162008 | 10 | 257 | 11.3 | 22.5 | 0.00 | 0.18 | 0.00 | 82 | 1015.8 |
| 20260905161518 | 10 | 241 | 12.9 | 27.4 | 0.00 | 0.18 | 0.00 | 82 | 1015.8 |
| 20260905161010 | 10 | 241 | 16.1 | 27.4 | 0.00 | 0.18 | 0.00 | 82 | 1015.7 |
| 20260905160511 | 10 | 251 | 12.9 | 24.1 | 0.00 | 0.18 | 0.00 | 82 | 1015.7 |
| 20260905160020 | 10 | 243 | 14.5 | 20.9 | 0.00 | 0.18 | 0.00 | 82 | 1015.6 |
| 20260905155515 | 10 | 218 | 8.0 | 19.3 | 0.00 | 0.18 | 0.00 | 82 | 1015.6 |
| 20260905155013 | 10 | 262 | 11.3 | 20.9 | 0.00 | 0.18 | 0.00 | 82 | 1015.5 |
| 20260905154527 | 10 | 289 | 11.3 | 20.9 | 0.00 | 0.18 | 0.00 | 82 | 1015.4 |
| 20260905154016 | 9 | 259 | 14.5 | 20.9 | 0.00 | 0.18 | 0.00 | 83 | 1015.2 |
| 20260905153516 | 9 | 254 | 9.7 | 19.3 | 0.00 | 0.18 | 0.00 | 83 | 1015.2 |
| 20260905153023 | 9 | 230 | 9.7 | 19.3 | 0.00 | 0.18 | 0.00 | 83 | 1015.2 |
| 20260905152515 | 9 | 237 | 11.3 | 22.5 | 0.00 | 0.18 | 0.00 | 83 | 1015.1 |
| 20260905152014 | 9 | 232 | 12.9 | 22.5 | 0.00 | 0.18 | 0.00 | 83 | 1015.0 |
| 20260905151519 | 9 | 256 | 11.3 | 19.3 | 0.00 | 0.18 | 0.00 | 83 | 1015.0 |
| 20260905151013 | 9 | 242 | 11.3 | 22.5 | 0.00 | 0.18 | 0.00 | 83 | 1014.9 |
| 20260905150514 | 9 | 273 | 12.9 | 25.7 | 0.00 | 0.18 | 0.00 | 83 | 1014.9 |
| 20260905150020 | 9 | 249 | 17.7 | 25.7 | 0.00 | 0.18 | 0.00 | 83 | 1014.9 |
| 20260905145514 | 9 | 273 | 12.9 | 24.1 | 0.00 | 0.18 | 0.00 | 83 | 1014.7 |
| 20260905145012 | 9 | 239 | 14.5 | 25.7 | 0.00 | 0.18 | 0.00 | 82 | 1014.6 |
| 20260905144526 | 10 | 240 | 16.1 | 27.4 | 0.00 | 0.18 | 0.00 | 81 | 1014.4 |
| 20260905144014 | 10 | 243 | 17.7 | 32.2 | 0.00 | 0.18 | 0.00 | 81 | 1014.3 |
| 20260905143511 | 10 | 241 | 17.7 | 32.2 | 0.00 | 0.18 | 0.00 | 80 | 1014.3 |
| 20260905143027 | 10 | 241 | 22.5 | 32.2 | 0.00 | 0.18 | 0.00 | 79 | 1014.1 |
| 20260905142513 | 10 | 255 | 20.9 | 32.2 | 0.00 | 0.18 | 0.00 | 80 | 1014.0 |
| 20260905142005 | 10 | 270 | 11.3 | 25.7 | 0.00 | 0.18 | 0.00 | 80 | 1013.9 |
| 20260905141507 | 10 | 255 | 16.1 | 25.7 | 0.00 | 0.18 | 0.00 | 80 | 1013.9 |
| 20260905141007 | 10 | 254 | 9.7 | 22.5 | 0.00 | 0.18 | 0.00 | 80 | 1013.8 |
| 20260905140511 | 10 | 241 | 12.9 | 22.5 | 0.00 | 0.18 | 0.00 | 79 | 1013.7 |
| 20260905140005 | 9 | 266 | 12.9 | 22.5 | 0.00 | 0.18 | 0.00 | 80 | 1013.7 |
| 20260905135510 | 9 | 260 | 16.1 | 22.5 | 0.00 | 0.18 | 0.18 | 80 | 1013.6 |
| 20260905135006 | 9 | 256 | 11.3 | 19.3 | 0.00 | 0.18 | 0.18 | 80 | 1013.4 |
| 20260905134521 | 9 | 257 | 12.9 | 19.3 | 0.00 | 0.18 | 0.18 | 80 | 1013.3 |
| 20260905134010 | 9 | 262 | 8.0 | 19.3 | 0.00 | 0.18 | 0.18 | 79 | 1013.2 |
| 20260905133504 | 9 | 256 | 11.3 | 19.3 | 0.00 | 0.18 | 0.18 | 79 | 1013.1 |
| 20260905133006 | 9 | 294 | 11.3 | 29.0 | 0.00 | 0.18 | 0.18 | 79 | 1013.1 |
| 20260905132505 | 9 | 287 | 14.5 | 29.0 | 0.00 | 0.18 | 0.18 | 78 | 1013.1 |
| 20260905132005 | 9 | 273 | 16.1 | 22.5 | 0.00 | 0.18 | 0.18 | 78 | 1013.0 |
| 20260905131508 | 9 | 278 | 11.3 | 16.1 | 0.00 | 0.18 | 0.18 | 78 | 1012.9 |
| 20260905131010 | 9 | 269 | 8.0 | 17.7 | 0.00 | 0.18 | 0.18 | 77 | 1012.9 |
| 20260905130508 | 9 | 273 | 9.7 | 17.7 | 0.00 | 0.18 | 0.18 | 77 | 1012.8 |
| 20260905130014 | 9 | 262 | 11.3 | 24.1 | 0.00 | 0.18 | 0.18 | 78 | 1012.7 |
| 20260905125504 | 9 | 268 | 12.9 | 24.1 | 0.00 | 0.18 | 0.18 | 77 | 1012.7 |
| 20260905125009 | 9 | 277 | 17.7 | 24.1 | 0.00 | 0.18 | 0.18 | 76 | 1012.7 |
| 20260905124512 | 9 | 274 | 14.5 | 24.1 | 0.00 | 0.18 | 0.18 | 75 | 1012.6 |
| 20260905124004 | 10 | 314 | 12.9 | 22.5 | 0.00 | 0.18 | 0.18 | 74 | 1012.5 |
| 20260905123512 | 10 | 247 | 11.3 | 17.7 | 0.00 | 0.18 | 0.18 | 73 | 1012.4 |
| 20260905123008 | 10 | 308 | 8.0 | 17.7 | 0.00 | 0.18 | 0.18 | 73 | 1012.4 |
| 20260905122514 | 10 | 312 | 9.7 | 17.7 | 0.00 | 0.18 | 0.18 | 72 | 1012.3 |
| 20260905122005 | 10 | 306 | 8.0 | 17.7 | 0.00 | 0.18 | 0.18 | 73 | 1012.3 |
| 20260905121507 | 10 | 285 | 9.7 | 17.7 | 0.00 | 0.18 | 0.18 | 73 | 1012.2 |
| 20260905121007 | 10 | 303 | 8.0 | 17.7 | 0.00 | 0.18 | 0.18 | 73 | 1012.2 |
| 20260905120508 | 10 | 289 | 12.9 | 24.1 | 0.00 | 0.18 | 0.18 | 73 | 1012.1 |
| 20260905120010 | 10 | 295 | 12.9 | 24.1 | 0.00 | 0.18 | 0.18 | 72 | 1012.0 |
| 20260905115509 | 10 | 278 | 12.9 | 19.3 | 0.00 | 0.18 | 0.18 | 72 | 1012.0 |
| 20260905115011 | 10 | 299 | 11.3 | 19.3 | 0.00 | 0.18 | 0.18 | 73 | 1012.1 |
| 20260905114514 | 10 | 285 | 12.9 | 20.9 | 0.00 | 0.18 | 0.18 | 72 | 1012.0 |
| 20260905114011 | 10 | 303 | 12.9 | 20.9 | 0.00 | 0.18 | 0.18 | 72 | 1011.8 |
| 20260905113507 | 10 | 286 | 16.1 | 20.9 | 0.00 | 0.18 | 0.18 | 72 | 1011.8 |
| 20260905113018 | 10 | 297 | 12.9 | 24.1 | 0.00 | 0.18 | 0.18 | 72 | 1011.6 |
| 20260905112510 | 10 | 302 | 11.3 | 24.1 | 0.00 | 0.18 | 0.18 | 72 | 1011.5 |
| 20260905112002 | 10 | 309 | 12.9 | 19.3 | 0.00 | 0.18 | 0.18 | 73 | 1011.3 |
| 20260905111505 | 10 | 305 | 11.3 | 22.5 | 0.00 | 0.18 | 0.18 | 73 | 1011.2 |
| 20260905111005 | 10 | 312 | 12.9 | 22.5 | 0.00 | 0.18 | 0.18 | 72 | 1011.2 |
| 20260905110504 | 10 | 302 | 14.5 | 22.5 | 0.00 | 0.18 | 0.18 | 72 | 1011.1 |
| 20260905110002 | 10 | 310 | 12.9 | 19.3 | 0.00 | 0.18 | 0.18 | 72 | 1010.9 |
| 20260905105508 | 10 | 314 | 12.9 | 19.3 | 0.00 | 0.18 | 0.18 | 72 | 1010.9 |
| 20260905105004 | 10 | 333 | 12.9 | 20.9 | 0.00 | 0.18 | 0.18 | 71 | 1010.7 |
| 20260905104501 | 10 | 314 | 12.9 | 20.9 | 0.00 | 0.18 | 0.18 | 71 | 1010.7 |
| 20260905104004 | 10 | 316 | 12.9 | 20.9 | 0.00 | 0.18 | 0.18 | 71 | 1010.7 |
| 20260905103505 | 10 | 341 | 12.9 | 29.0 | 0.00 | 0.18 | 0.18 | 71 | 1010.7 |
| 20260905103015 | 10 | 324 | 12.9 | 29.0 | 0.00 | 0.18 | 0.18 | 71 | 1010.7 |
| 20260905102505 | 10 | 339 | 14.5 | 25.7 | 0.00 | 0.18 | 0.18 | 71 | 1010.6 |
| 20260905102003 | 10 | 299 | 17.7 | 25.7 | 0.00 | 0.18 | 0.18 | 71 | 1010.6 |
| 20260905101505 | 10 | 314 | 16.1 | 24.1 | 0.00 | 0.18 | 0.18 | 72 | 1010.4 |
| 20260905101003 | 10 | 306 | 11.3 | 24.1 | 0.00 | 0.18 | 0.18 | 72 | 1010.3 |
| 20260905100510 | 10 | 320 | 12.9 | 24.1 | 0.00 | 0.18 | 0.18 | 72 | 1010.1 |
| 20260905100006 | 10 | 305 | 16.1 | 22.5 | 0.00 | 0.18 | 0.18 | 72 | 1009.9 |
| 20260905095504 | 10 | 308 | 11.3 | 29.0 | 0.00 | 0.18 | 0.18 | 72 | 1009.9 |
| 20260905095006 | 10 | 296 | 17.7 | 29.0 | 0.00 | 0.18 | 0.18 | 73 | 1010.1 |
| 20260905094508 | 10 | 293 | 14.5 | 24.1 | 0.00 | 0.18 | 0.18 | 76 | 1009.8 |
| 20260905094003 | 9 | 336 | 11.3 | 22.5 | 0.00 | 0.18 | 0.18 | 77 | 1009.7 |
| 20260905093508 | 9 | 335 | 14.5 | 22.5 | 0.00 | 0.18 | 0.18 | 77 | 1009.5 |
| 20260905093005 | 9 | 318 | 11.3 | 22.5 | 0.00 | 0.18 | 0.18 | 78 | 1009.4 |
| 20260905092504 | 9 | 11 | 12.9 | 22.5 | 0.00 | 0.18 | 0.18 | 78 | 1009.3 |
| 20260905092004 | 10 | 333 | 14.5 | 24.1 | 0.00 | 0.18 | 0.18 | 78 | 1009.0 |
| 20260905091505 | 9 | 338 | 12.9 | 24.1 | 0.00 | 0.18 | 0.18 | 78 | 1009.0 |
| 20260905091006 | 9 | 339 | 9.7 | 17.7 | 0.00 | 0.18 | 0.18 | 78 | 1008.9 |
| 20260905090503 | 9 | 21 | 8.0 | 16.1 | 0.00 | 0.18 | 0.18 | 79 | 1008.8 |
| 20260905090005 | 9 | 5 | 6.4 | 16.1 | 0.00 | 0.18 | 0.18 | 79 | 1008.7 |
| 20260905085505 | 9 | 16 | 9.7 | 17.7 | 0.00 | 0.18 | 0.18 | 78 | 1008.7 |
| 20260905085002 | 9 | 4 | 9.7 | 17.7 | 0.00 | 0.18 | 0.18 | 79 | 1008.7 |
| 20260905084508 | 9 | 339 | 9.7 | 19.3 | 0.00 | 0.18 | 0.18 | 79 | 1008.4 |
| 20260905084006 | 9 | 345 | 12.9 | 27.4 | 0.00 | 0.18 | 0.18 | 78 | 1008.2 |
| 20260905083502 | 9 | 328 | 14.5 | 30.6 | 0.00 | 0.18 | 0.18 | 78 | 1007.9 |
| 20260905083011 | 9 | 343 | 17.7 | 30.6 | 0.00 | 0.18 | 0.18 | 78 | 1007.8 |
| 20260905082511 | 9 | 344 | 19.3 | 27.4 | 0.00 | 0.18 | 0.18 | 78 | 1007.8 |
| 20260905082010 | 9 | 335 | 17.7 | 25.7 | 0.00 | 0.18 | 0.18 | 78 | 1007.9 |
| 20260905081510 | 9 | 333 | 16.1 | 22.5 | 0.00 | 0.18 | 0.18 | 78 | 1007.9 |
| 20260905081007 | 10 | 352 | 16.1 | 22.5 | 0.00 | 0.18 | 0.18 | 77 | 1007.9 |
| 20260905080504 | 10 | 333 | 12.9 | 25.7 | 0.00 | 0.18 | 0.18 | 76 | 1007.8 |
| 20260905080004 | 10 | 324 | 14.5 | 25.7 | 0.00 | 0.18 | 0.18 | 76 | 1007.9 |